CZ-3A DEB, 36966

Orbit data source: Space-Track

CZ-3A DEB, 36966 is space debris in HEO originally from a launch on Fri, 02 Feb 2007 UTC launched from the Xichang Space Center, China (XSC). Debris objects in space refer to the collection of defunct objects orbiting the Earth. Examples of debris include non-operational satellites, rocket bodies, and fragments generated from explosions, collisions, or faulty payload assembly.

Loading next visibility...
Identifier
36966, 2007-003AC
Orbit
HEO
Country
Flag of CNCN / PRC
Related business
Manufacturer
Unknown
Mission
Spacecraft
Bus & Motor
Unknown
Mass
Unknown
Launch date (UTC)
2007-02-02 (19 years ago)
Launch vehicle
Unknown
Launch site
Xichang Space Center, China (XSC)
Object type
Payload
Rocket body
Debris
Shape & HBR
Unknown
Radar Cross Section
Medium (>0.1 m² and <1 m²)

Expand to show TLE details & history
Last TLE update: 1 year ago

TLE from 1 year ago
0 CZ-3A DEB
1 36966U 07003AC  24183.39007069 -.00000107  00000-0  16891-1 0  9997
2 36966  24.3223  99.8939 7348744 231.3656 335.0213  1.89676484 74964
Epoch: 2024-07-01T09:21Z
TLE epoch observation values (Epoch: 2024-07-01T09:21:42.107Z)
Latitude
21.45355°
Longitude
159.35686°
Altitude
11,637.452 km
Speed
5.458 km/s
True Right ascension
14h 38m 49s
True Declination
21° 24' 26"
Sunlit
Object was in daylight at epoch
Visualization orbit readout
Latitude
Unknown
Longitude
Unknown
Altitude
Unknown
Speed
Unknown
Apparent Right ascension
Unknown
Apparent Declination
Unknown
Sunlit
N/A
Visualization observer readout
Local Sidereal Time
23:32:56
Azimuth
Unknown
Elevation
Unknown
Doppler factor
Unknown
Orbital elements
Apogee altitude
41,454.168 km
Perigee altitude
931.654 km
Semi-major axis
27,571.048 km
Eccentricity
0.73487
Inclination
24.3223°
RAAN
99.8939°
Arg. of periapsis
231.3656°
True anomaly
245.85191°
Mean anomaly
335.0213°
Eccentric anomaly
297.76325°
Mean motion
0.47409 °/min
Orbital period
759.35 mins
BSTAR
0.016891
Loading maneuver chart data...
Computing Atmospheric mass density...
Loading historical data...
Loading historical data...
Loading historical data...
Loading historical data...
Loading historical data...
Loading historical data...
Loading historical data...

Documentation

Showing up to 5 results
|